カタログに戻る

TIROS 9

運用中気象PO
NORAD 978·PAYLOAD·🇺🇸 United States

打ち上げ Jan 22, 1965 から Cape Canaveral Space Force Station

Loading…

次のパス (今後24時間)

TLE

最新Source: Space-Track

元期: Sep 14, 2026, 14:11 UTC

1 00978U 65004A   26257.59118332 -.00000127  00000-0 -14117-3 0  9992
2 00978  96.4135   4.0648 1157518 201.6703 153.1321 12.11154862722438

AllMySatでTIROS 9をリアルタイム追跡

Download on the App Store